Tracking 21612 objects as of 22-Oct-2020
HD Live streaming from Space Station
objects crossing your sky now

STARLINK-1683

Track STARLINK-1683 now!
10-day predictions
STARLINK-1683 is classified as:


NORAD ID: 46578
Int'l Code: 2020-070AY
Perigee: 358.3 km
Apogee: 360.0 km
Inclination: 53.0 °
Period: 91.6 minutes
Semi major axis: 6730 km
RCS: Unknown
Launch date: October 6, 2020
Source: United States (US)
Launch site: AIR FORCE EASTERN TEST RANGE (AFETR)
aabbcc
Your satellite tracking list
Your tracking list is empty




NASA's NSSDC Master Catalog

Two Line Element Set (TLE):
1 46578U 20070AY  20296.16667824 -.01101382  00000-0 -90679-2 0  9999
2 46578  52.9892   4.8990 0001239  58.3927 202.9144 15.72403075  2981
Source of the keplerian elements: AFSPC